Commit Graph

146 Commits

Author SHA1 Message Date
dfcarvajal 0f6c63cb1e FIX device_tracker nmap & ADD arp 2021-01-19 01:31:04 +01:00
dfcarvajal a1c5036c60 Update holidays colegio 2021-01-19 01:30:30 +01:00
dfcarvajal 8730e7e7be Change MN lights startup 2021-01-19 01:30:14 +01:00
dfcarvajal b93d214ade Quitado entity_id deprecated 2021-01-17 20:58:41 +01:00
dfcarvajal 900fe6e152 FIX aspiradora token 2021-01-17 13:02:12 +01:00
dfcarvajal ed303402be Test estadisticas Movimientos 2021-01-17 13:01:58 +01:00
dfcarvajal dc7d8beece Remove calidad de aire 2021-01-17 13:01:26 +01:00
dfcarvajal 46cea6b9e7 FIX disconnect token 2021-01-17 12:52:20 +01:00
dfcarvajal 6b5e7474c8 FIX template change for datetime 2021-01-17 12:52:07 +01:00
dfcarvajal 7be321f4df Update Holidays 2021-01-17 12:51:28 +01:00
dfcarvajal 0eb7c0dd76 Bump HACS 2021-01-17 12:50:51 +01:00
dfcarvajal 05cbfac267 FIX schema camera 2020-12-27 17:46:08 +01:00
dfcarvajal b3e049e42c Múltiples cambios en customize 2020-12-27 17:42:34 +01:00
dfcarvajal 74e8517f16 Update Secondaryinfo-entity-row 2020-12-27 17:42:08 +01:00
dfcarvajal 87f73454aa Modificado parámetro de humedad 2020-12-27 17:41:23 +01:00
dfcarvajal 57dfa8bfff Samsung integrado en HA 2020-12-27 17:41:01 +01:00
dfcarvajal 1a7d584016 Eliminados timmers 2020-12-27 17:40:38 +01:00
dfcarvajal 3650c3d321 Cambiado led cabecero a zwave 2020-12-27 17:38:04 +01:00
dfcarvajal 38284e4383 Deshabilitados los purificadores de agua 2020-12-27 17:34:03 +01:00
dfcarvajal f743fbf2b8 Añadida humedad hab. principal 2020-12-27 17:33:46 +01:00
dfcarvajal 1fa56d15ed Añadido luminosidad general 2020-12-27 17:33:31 +01:00
dfcarvajal 42ce6348b6 Añadidos valores input varios 2020-12-27 17:33:08 +01:00
dfcarvajal 2e15bba6b0 Añadidos valores input_boolean varios 2020-12-27 17:32:43 +01:00
dfcarvajal 38d8346650 Cambio track televisión por nmap 2020-12-27 17:32:20 +01:00
dfcarvajal 2dfccbeab9 Añadido purificador aire hab. principal 2020-12-27 17:31:40 +01:00
dfcarvajal 4448dea68a Añadido mapa en la aspiradora 2020-12-27 17:31:05 +01:00
dfcarvajal 8ea867e34e Cambio valores coches 2020-12-27 17:30:48 +01:00
dfcarvajal 3963b34176 Modificaciones de consumos 2020-12-27 17:30:27 +01:00
dfcarvajal 0b70cc86b5 WOL Synology y NUC 2020-12-27 17:29:43 +01:00
dfcarvajal f6cc1c57f0 Cambio de valores trabajo y colegio 2020-12-27 17:29:22 +01:00
dfcarvajal 75d14d5228 Modificaciones de devices trackers 2020-12-27 17:27:54 +01:00
dfcarvajal f1823cdc41 Broadlink integrado en HA 2020-12-27 17:27:33 +01:00
dfcarvajal d7450446ce Kodi integrado en HA 2020-12-27 17:26:49 +01:00
dfcarvajal d5dd886cf7 Añadidas luces baños y varias 2020-12-27 17:26:21 +01:00
dfcarvajal f6f4aa47a9 Añadido Nuki 2020-12-27 17:25:47 +01:00
dfcarvajal a8bf81d9a2 Modificaciones temperatura 2020-12-27 17:25:33 +01:00
dfcarvajal ee6dd8dfe2 Modificaciones Varias del Core 2020-12-27 17:24:56 +01:00
dfcarvajal b19a9ba9d1 Modificaciones de OpenMQTTGateway 2020-12-27 17:23:54 +01:00
dfcarvajal 5aa53ae7ae Upgrades HACS 2020-12-27 17:22:59 +01:00
dfcarvajal 08ef839730 Modificaciones Lovelace Varias 2020-12-27 17:22:00 +01:00
dfcarvajal 9b3ec47f41 Eliminado CCS 2020-12-27 17:20:09 +01:00
dfcarvajal 18883717fb Persianas integradas en HA 2020-12-27 17:19:26 +01:00
dfcarvajal 962dd8198b Cambios en modo puertas 2020-12-27 17:18:43 +01:00
dfcarvajal f4ad89860e Add googleassistant 2020-12-27 17:17:57 +01:00
dfcarvajal 9b9a7417c5 Disable ui-lovelace_yaml 2020-12-27 17:17:29 +01:00
dfcarvajal dd55175e9e Añadido ui & media control 2020-12-27 17:16:26 +01:00
dfcarvajal 6296fc68b8 Cambios en los movimientos 2020-12-27 17:15:48 +01:00
dfcarvajal 2d60b27293 Actualizacion dispositivos google assistant 2019-12-25 23:47:20 +01:00
dfcarvajal b6da5c009b Actualizacion dispositivos nmap 2019-12-25 23:46:47 +01:00
dfcarvajal a717c6bc35 Actualizar controlador de television 2019-12-25 23:46:21 +01:00